Regional Weather Roundup
Issued by NWS

Home | Current Version | Previous Version | Graphics & Text | Print | Product List | Glossary On
Versions: 1 2 3 4 5 6 7 8 9 10 11 12 13 14 15 16 17 18 19 20 21 22 23 24 25 26 27 28 29 30 31 32 33 34 35 36 37 38 39 40 41 42 43 44 45 46 47 48 49 50
000
ASUS43 KBIS 091010
RWRND

NORTH DAKOTA REGIONAL WEATHER ROUNDUP
NATIONAL WEATHER SERVICE BISMARCK ND
400 AM CST TUE FEB 09 2016

NOTE: "FAIR" INDICATES FEW OR NO CLOUDS BELOW 12,000 FEET WITH NO
SIGNIFICANT WEATHER AND/OR OBSTRUCTIONS TO VISIBILITY.


NDZ001>003-009>011-017-091100-
NORTHWEST NORTH DAKOTA

CITY           SKY/WX    TMP DP  RH WIND       PRES   REMARKS
WILLISTON      CLOUDY    29  21  72 S3        30.21F
MINOT          CLOUDY    26  13  57 SW5       30.22F
MINOT AFB      CLOUDY    23  18  81 CALM      30.22F
$$

NDZ018>021-031>035-040>046-091100-
SOUTHWEST NORTH DAKOTA

CITY           SKY/WX    TMP DP  RH WIND       PRES   REMARKS
BISMARCK       CLOUDY    25  10  53 NW3       30.27F
DICKINSON      CLOUDY    25  17  72 SE7       30.18F WCI  17
GARRISON         N/A     22  15  75 SW5       30.23F WCI  16
HETTINGER ARPT CLOUDY    28  17  63 W5        30.22F
$$

NDZ004>008-012>016-024-026-027-054-091100-
NORTHEAST NORTH DAKOTA

CITY           SKY/WX    TMP DP  RH WIND       PRES   REMARKS
GRAND FORKS    CLOUDY    10   3  73 NW13      30.25F WCI  -5
GRND FRKS AFB  CLOUDY     9   2  75 NW9       30.25F WCI  -4
DEVILS LAKE    CLOUDY    13   8  81 CALM      30.24F
$$

NDZ022-023-025-028>030-036>039-047>053-091100-
SOUTHEAST NORTH DAKOTA

CITY           SKY/WX    TMP DP  RH WIND       PRES   REMARKS
FARGO          CLEAR      4  -1  80 NW9       30.25S WCI -10
JAMESTOWN      CLOUDY    11   7  84 NW6       30.24S WCI   1
$$




USA.gov is the U.S. government's official web portal to all federal, state and local government web resources and services.